KG6SIB Weather Reports


Display with metric or nautical units.
time (UTC)temp
F
wind
direction
speed
MPH
gust
MPH
rain 1hr
in
rain 24hr
in
rain mn
in
humidity
%
barometer
mb
20170426134627 48 46 4.0 6.0 0.00 0.00 0.00 72 1012.1
20170426134131 47 31 4.0 7.0 0.00 0.00 0.00 73 1011.8
20170426133628 48 39 6.0 7.0 0.00 0.00 0.00 72 1012.0
20170426133127 48 37 4.0 5.0 0.00 0.00 0.00 71 1012.0
20170426132628 49 23 1.0 6.0 0.00 0.00 0.00 69 1011.9
20170426132127 49 25 5.0 6.0 0.00 0.00 0.00 69 1011.8
20170426131627 48 35 5.0 6.0 0.00 0.00 0.00 69 1011.8
20170426131126 49 27 4.0 5.0 0.00 0.00 0.00 69 1011.7
20170426130626 48 27 3.0 5.0 0.00 0.00 0.00 71 1011.7
20170426130126 47 40 2.0 6.0 0.00 0.00 0.00 73 1011.4
20170426125629 46 30 5.0 7.0 0.00 0.00 0.00 75 1011.3
20170426125126 46 32 6.0 7.0 0.00 0.00 0.00 76 1011.4
20170426124625 46 44 4.0 7.0 0.00 0.00 0.00 77 1011.5
20170426124126 46 50 6.0 7.0 0.00 0.00 0.00 77 1011.5
20170426123625 46 47 5.0 6.0 0.00 0.00 0.00 75 1011.5
20170426123127 46 23 4.0 5.0 0.00 0.00 0.00 77 1011.6
20170426122628 45 49 2.0 5.0 0.00 0.00 0.00 79 1011.7
20170426122126 45 58 2.0 7.0 0.00 0.00 0.00 79 1011.6
20170426121628 44 51 2.0 8.0 0.00 0.00 0.00 80 1011.4
20170426121126 45 55 5.0 8.0 0.00 0.00 0.00 79 1011.6
20170426120626 46 30 6.0 7.0 0.00 0.00 0.00 76 1011.7
20170426120126 46 57 2.0 4.0 0.00 0.00 0.00 76 1011.8
20170426115624 45 84 2.0 7.0 0.00 0.00 0.00 78 1012.1
20170426115124 45 20 4.0 8.0 0.00 0.00 0.00 79 1011.9
20170426114624 45 41 5.0 8.0 0.00 0.00 0.00 80 1011.9
20170426114123 45 25 6.0 6.0 0.00 0.00 0.00 79 1011.9
20170426113623 44 35 3.0 5.0 0.00 0.00 0.00 81 1011.8
20170426113125 44 58 2.0 5.0 0.00 0.00 0.00 81 1011.7
20170426112624 44 49 4.0 7.0 0.00 0.00 0.00 82 1011.7
20170426112124 44 39 2.0 7.0 0.00 0.00 0.00 81 1011.7
20170426111623 44 49 4.0 6.0 0.00 0.00 0.00 80 1011.8
20170426110639 45 50 4.0 7.0 0.00 0.00 0.00 80 1012.0
20170426110140 46 50 4.0 6.0 0.00 0.00 0.00 77 1012.0
20170426105637 46 22 1.0 7.0 0.00 0.00 0.00 78 1012.1
20170426105138 45 56 2.0 7.0 0.00 0.00 0.00 79 1011.8
20170426104637 46 42 5.0 6.0 0.00 0.00 0.00 78 1011.7
20170426104139 46 35 4.0 5.0 0.00 0.00 0.00 76 1011.6
20170426103638 47 41 3.0 5.0 0.00 0.00 0.00 77 1011.6
20170426103137 47 39 4.0 5.0 0.00 0.00 0.00 76 1011.5
20170426102638 46 29 2.0 4.0 0.00 0.00 0.00 78 1011.5
20170426102137 46 49 1.0 6.0 0.00 0.00 0.00 80 1011.6
20170426101638 45 63 3.0 8.0 0.00 0.00 0.00 81 1011.3
20170426101138 45 58 5.0 8.0 0.00 0.00 0.00 81 1011.4
20170426100636 45 48 5.0 8.0 0.00 0.00 0.00 80 1011.4
20170426100136 46 37 4.0 8.0 0.00 0.00 0.00 79 1011.7
20170426095637 46 49 5.0 8.0 0.00 0.00 0.00 78 1011.9
20170426095137 46 23 6.0 8.0 0.00 0.00 0.00 79 1012.0
20170426094636 46 54 4.0 7.0 0.00 0.00 0.00 80 1012.0
20170426094136 45 49 4.0 6.0 0.00 0.00 0.00 80 1011.8
20170426093636 46 51 5.0 6.0 0.00 0.00 0.00 80 1012.0
20170426093135 46 47 4.0 6.0 0.00 0.00 0.00 80 1012.1
20170426092636 46 30 3.0 6.0 0.00 0.00 0.00 79 1012.1
20170426092136 46 56 4.0 6.0 0.00 0.00 0.00 79 1012.2
20170426091636 46 54 4.0 6.0 0.00 0.00 0.00 79 1012.1
20170426091134 46 48 4.0 6.0 0.00 0.00 0.00 80 1012.0
20170426090635 46 41 3.0 6.0 0.00 0.00 0.00 81 1012.1
20170426090134 46 40 4.0 6.0 0.00 0.00 0.00 81 1012.2
20170426085634 45 32 4.0 6.0 0.00 0.00 0.00 81 1012.2
20170426085135 46 62 3.0 6.0 0.00 0.00 0.00 80 1012.3
20170426084634 47 47 4.0 6.0 0.00 0.00 0.00 79 1012.6
20170426084135 47 34 4.0 6.0 0.00 0.00 0.00 79 1012.6
20170426083633 46 65 4.0 6.0 0.00 0.00 0.00 80 1012.4
20170426083134 47 44 4.0 6.0 0.00 0.00 0.00 80 1012.8
20170426082634 46 15 4.0 6.0 0.00 0.00 0.00 82 1012.8
20170426082133 46 40 5.0 6.0 0.00 0.00 0.00 81 1012.8
20170426081634 47 51 5.0 6.0 0.00 0.00 0.00 80 1013.0
20170426081133 46 30 5.0 6.0 0.00 0.00 0.00 83 1012.8
20170426080633 46 30 3.0 6.0 0.00 0.00 0.00 84 1012.8
20170426080133 46 82 5.0 6.0 0.00 0.00 0.00 83 1012.7
20170426075633 46 59 4.0 6.0 0.00 0.00 0.00 85 1012.8
20170426075133 46 53 3.0 7.0 0.00 0.00 0.00 84 1013.0
20170426074634 46 37 6.0 7.0 0.00 0.00 0.00 83 1012.9
20170426074133 47 33 5.0 7.0 0.00 0.00 0.00 84 1013.0
20170426073633 47 43 2.0 7.0 0.00 0.00 0.00 83 1013.1
20170426073135 47 55 3.0 4.0 0.00 0.00 0.00 83 1013.0
20170426072632 48 360 1.0 5.0 0.00 0.00 0.00 83 1013.3
20170426072133 47 86 0.0 6.0 0.00 0.00 0.00 85 1013.1
20170426071632 47 28 5.0 6.0 0.00 0.00 0.00 85 1013.1
20170426070615 48 25 6.0 7.0 0.00 0.00 0.00 84 1013.3
20170426070146 47 54 2.0 5.0 0.00 0.00 0.00 86 1013.1
20170426065645 47 59 3.0 5.0 0.00 0.00 0.00 87 1013.1
20170426065144 47 55 4.0 5.0 0.00 0.00 0.00 87 1013.2
20170426064645 46 58 2.0 5.0 0.00 0.00 0.00 87 1012.9
20170426064144 47 63 3.0 7.0 0.00 0.00 0.00 88 1013.1
20170426063645 46 30 5.0 8.0 0.00 0.00 0.00 89 1013.0
20170426063144 46 30 6.0 8.0 0.00 0.00 0.00 89 1013.0
20170426062644 45 43 4.0 7.0 0.00 0.00 0.00 90 1013.0
20170426062144 45 60 5.0 7.0 0.00 0.00 0.00 89 1013.1
20170426061646 45 52 5.0 7.0 0.00 0.00 0.00 89 1013.1
20170426061144 45 37 4.0 7.0 0.00 0.00 0.00 90 1013.1
20170426060644 45 40 3.0 5.0 0.00 0.00 0.00 89 1013.1
20170426060144 46 62 2.0 4.0 0.00 0.00 0.00 90 1013.1
20170426055643 46 52 1.0 4.0 0.00 0.00 0.00 90 1013.1
20170426055143 46 32 4.0 6.0 0.00 0.00 0.00 92 1013.1
20170426054644 45 55 4.0 6.0 0.00 0.00 0.00 91 1012.8
20170426054142 45 42 1.0 5.0 0.00 0.00 0.00 92 1012.8
20170426053642 45 71 1.0 5.0 0.00 0.00 0.00 91 1012.9
20170426053143 45 38 2.0 4.0 0.00 0.00 0.00 91 1012.9
20170426052643 45 61 2.0 3.0 0.00 0.00 0.00 91 1012.9
20170426052142 45 49 1.0 2.0 0.00 0.00 0.00 91 1013.0
20170426051641 45 49 1.0 3.0 0.00 0.00 0.00 91 1013.0
20170426051143 46 49 0.0 3.0 0.00 0.00 0.00 91 1013.3
20170426050641 46 44 3.0 3.0 0.00 0.00 0.00 91 1013.3
20170426050143 46 42 1.0 4.0 0.00 0.00 0.00 91 1013.1
20170426045642 46 38 1.0 4.0 0.00 0.00 0.00 90 1012.8
20170426045143 46 54 2.0 4.0 0.00 0.00 0.00 90 1013.0
20170426044642 47 234 0.0 1.0 0.00 0.00 0.00 90 1013.1
20170426044142 47 234 0.0 1.0 0.00 0.00 0.00 89 1013.2
20170426043642 47 337 1.0 1.0 0.00 0.00 0.00 90 1013.1
20170426043140 47 277 1.0 1.0 0.00 0.00 0.00 90 1013.1
20170426042641 47 269 1.0 1.0 0.00 0.00 0.00 90 1013.0
20170426042141 47 231 0.0 2.0 0.00 0.00 0.00 90 1012.9
20170426041645 47 206 0.0 2.0 0.00 0.00 0.00 90 1012.9
20170426041144 47 240 2.0 2.0 0.00 0.00 0.00 89 1012.9
20170426040640 48 155 0.0 1.0 0.00 0.00 0.00 89 1012.9
20170426040139 48 103 0.0 1.0 0.00 0.00 0.00 88 1013.0
20170426035639 48 103 0.0 1.0 0.00 0.00 0.00 88 1012.4
20170426035141 48 85 0.0 1.0 0.00 0.00 0.00 88 1012.3
20170426034639 49 252 0.0 1.0 0.00 0.00 0.00 88 1012.4
20170426034139 49 252 0.0 2.0 0.00 0.00 0.00 87 1012.3
20170426033639 49 252 0.0 2.0 0.00 0.00 0.00 87 1012.3
20170426033141 49 259 2.0 2.0 0.00 0.00 0.00 86 1012.2
20170426032639 50 278 0.0 0.0 0.00 0.00 0.00 86 1012.2
20170426032139 50 277 0.0 0.0 0.00 0.00 0.00 86 1012.1
20170426031640 50 250 0.0 2.0 0.00 0.00 0.00 85 1012.0
20170426030620 51 253 2.0 3.0 0.00 0.00 0.00 85 1011.9
20170426030118 51 222 1.0 2.0 0.00 0.00 0.00 85 1011.9
20170426025619 51 249 1.0 2.0 0.00 0.00 0.00 84 1011.6
20170426025119 51 230 1.0 2.0 0.00 0.00 0.00 85 1011.5
20170426024618 51 233 0.0 3.0 0.00 0.00 0.00 84 1011.7
20170426024120 51 258 0.0 3.0 0.00 0.00 0.00 84 1011.7
20170426023618 51 213 2.0 5.0 0.00 0.00 0.00 84 1011.5
20170426023119 51 255 0.0 5.0 0.00 0.00 0.00 84 1011.5
20170426022619 51 217 3.0 6.0 0.00 0.00 0.00 84 1011.5
20170426022119 51 224 1.0 7.0 0.00 0.00 0.00 85 1011.4
20170426021618 51 291 2.0 7.0 0.00 0.00 0.00 85 1011.6
20170426021117 52 226 2.0 6.0 0.00 0.00 0.00 85 1011.7
20170426020617 52 276 4.0 6.0 0.00 0.00 0.00 85 1011.6
20170426020116 52 264 3.0 6.0 0.00 0.00 0.00 85 1011.5
20170426015618 52 262 3.0 8.0 0.00 0.00 0.00 85 1011.5
20170426015118 52 233 3.0 8.0 0.00 0.00 0.00 85 1011.5
20170426014617 52 208 4.0 7.0 0.00 0.00 0.00 85 1011.5
20170426014116 52 261 3.0 6.0 0.00 0.00 0.00 85 1011.6
20170426013619 53 248 2.0 8.0 0.00 0.00 0.00 85 1011.5
20170426013117 53 210 4.0 8.0 0.00 0.00 0.00 85 1011.3
20170426012617 53 250 8.0 8.0 0.00 0.00 0.00 85 1011.2
20170426012118 53 231 3.0 8.0 0.00 0.00 0.00 85 1011.1
20170426011617 53 204 3.0 8.0 0.00 0.00 0.00 85 1011.1
20170426011117 53 259 2.0 8.0 0.00 0.00 0.00 85 1011.1
20170426010617 53 255 3.0 8.0 0.00 0.00 0.00 85 1011.1
20170426010145 53 243 3.0 7.0 0.00 0.00 0.00 85 1011.3
20170426005614 53 294 2.0 7.0 0.00 0.00 0.00 85 1011.3
20170426005115 53 265 1.0 8.0 0.00 0.00 0.00 85 1011.3
20170426004645 53 216 2.0 13.0 0.00 0.00 0.00 85 1011.3
20170426004145 54 259 7.0 13.0 0.00 0.00 0.00 84 1011.4
20170426003646 53 227 0.0 9.0 0.00 0.00 0.00 84 1011.4
20170426003144 54 284 5.0 9.0 0.00 0.00 0.00 83 1011.5
20170426002646 54 282 3.0 10.0 0.00 0.00 0.00 83 1011.3
20170426002144 54 273 3.0 10.0 0.00 0.00 0.00 82 1011.2
20170426001646 54 267 7.0 8.0 0.00 0.00 0.00 82 1011.1
20170426001143 54 240 3.0 7.0 0.00 0.00 0.00 81 1011.0
20170426000644 54 285 3.0 7.0 0.00 0.00 0.00 81 1011.2
20170426000144 55 213 4.0 10.0 0.00 0.00 0.00 81 1011.4
20170425235643 55 254 3.0 10.0 0.00 0.00 0.00 81 1011.5
20170425235143 55 225 2.0 11.0 0.00 0.00 0.00 80 1011.5
20170425234643 55 247 4.0 11.0 0.00 0.00 0.00 81 1011.4
20170425234144 55 250 6.0 10.0 0.00 0.00 0.00 80 1011.4
20170425233642 55 225 9.0 10.0 0.00 0.00 0.00 81 1011.0
20170425233144 55 217 2.0 9.0 0.00 0.00 0.00 81 1011.3
20170425232643 54 250 4.0 9.0 0.00 0.00 0.00 81 1010.9
20170425232144 54 243 2.0 9.0 0.00 0.00 0.00 81 1011.3
20170425231644 54 263 5.0 9.0 0.00 0.00 0.00 81 1011.2
20170425231115 54 262 3.0 9.0 0.00 0.00 0.00 81 1011.2
20170425230615 55 233 7.0 10.0 0.00 0.00 0.00 81 1011.6
20170425230145 54 258 7.0 11.0 0.00 0.00 0.00 81 1011.2
20170425225644 55 252 5.0 11.0 0.00 0.00 0.00 80 1011.5
20170425225144 55 201 5.0 10.0 0.00 0.00 0.00 81 1011.5
20170425224644 55 214 8.0 11.0 0.00 0.00 0.00 80 1011.7
20170425224143 55 181 4.0 11.0 0.00 0.00 0.00 79 1011.7
20170425223643 55 264 7.0 11.0 0.00 0.00 0.00 79 1011.6
20170425223145 56 271 5.0 10.0 0.00 0.00 0.00 77 1011.6
20170425222644 56 211 3.0 10.0 0.00 0.00 0.00 78 1011.7
20170425222144 56 171 3.0 12.0 0.00 0.00 0.00 78 1011.5
20170425221646 56 217 3.0 12.0 0.00 0.00 0.00 78 1011.5
20170425221145 56 229 5.0 10.0 0.00 0.00 0.00 77 1011.4
20170425220644 56 290 1.0 9.0 0.00 0.00 0.00 76 1011.4
20170425220143 56 256 3.0 9.0 0.00 0.00 0.00 76 1011.4
20170425215642 56 311 5.0 7.0 0.00 0.00 0.00 76 1011.2
20170425215143 56 238 3.0 11.0 0.00 0.00 0.00 77 1011.1
20170425214643 56 217 2.0 11.0 0.00 0.00 0.00 76 1011.5
20170425214142 56 214 7.0 11.0 0.00 0.00 0.00 75 1011.6
20170425213642 56 272 3.0 13.0 0.00 0.00 0.00 75 1011.9
20170425213144 56 231 6.0 13.0 0.00 0.00 0.00 75 1011.8
20170425212641 56 250 5.0 10.0 0.00 0.00 0.00 75 1011.9
20170425212141 57 204 8.0 10.0 0.00 0.00 0.00 74 1012.3
20170425211641 57 269 3.0 12.0 0.00 0.00 0.00 73 1012.5
20170425211141 56 295 4.0 12.0 0.00 0.00 0.00 74 1012.1
20170425210641 57 233 4.0 12.0 0.00 0.00 0.00 74 1012.5
20170425210141 57 231 6.0 16.0 0.00 0.00 0.00 73 1012.5
20170425205641 56 234 7.0 16.0 0.00 0.00 0.00 73 1012.3
20170425205140 57 197 9.0 12.0 0.00 0.00 0.00 74 1012.6
20170425204640 57 286 6.0 12.0 0.00 0.00 0.00 72 1012.7
20170425204142 57 243 10.0 12.0 0.00 0.00 0.00 71 1012.5
20170425203640 57 211 6.0 13.0 0.00 0.00 0.00 72 1012.6
20170425203141 57 230 3.0 13.0 0.00 0.00 0.00 71 1012.6
20170425202640 56 247 9.0 12.0 0.00 0.00 0.00 72 1012.3
20170425202140 56 274 10.0 12.0 0.00 0.00 0.00 72 1012.2
20170425201639 56 273 11.0 11.0 0.00 0.00 0.00 73 1012.2
20170425201139 56 266 7.0 11.0 0.00 0.00 0.00 73 1012.2
20170425200639 56 258 7.0 11.0 0.00 0.00 0.00 72 1012.2
20170425200139 56 262 4.0 10.0 0.00 0.00 0.00 71 1012.3
20170425195638 56 224 2.0 10.0 0.00 0.00 0.00 71 1012.4
20170425195141 56 216 3.0 10.0 0.00 0.00 0.00 71 1012.4
20170425194639 57 302 5.0 10.0 0.00 0.00 0.00 70 1012.6
20170425194139 56 182 1.0 13.0 0.00 0.00 0.00 71 1012.3
20170425193638 56 219 7.0 13.0 0.00 0.00 0.00 72 1012.3
20170425193139 56 254 4.0 11.0 0.00 0.00 0.00 73 1012.4
20170425192639 56 240 5.0 11.0 0.00 0.00 0.00 72 1012.2
20170425192138 56 274 5.0 10.0 0.00 0.00 0.00 70 1012.3
20170425191638 56 233 4.0 9.0 0.00 0.00 0.00 71 1012.1
20170425190645 55 278 5.0 8.0 0.00 0.00 0.00 73 1012.4
20170425190145 55 250 6.0 8.0 0.00 0.00 0.00 73 1012.6
20170425185643 55 259 4.0 10.0 0.00 0.00 0.00 72 1012.5
20170425185145 55 283 4.0 10.0 0.00 0.00 0.00 73 1012.7
20170425184643 55 163 1.0 10.0 0.00 0.00 0.00 72 1012.5
20170425184143 55 293 2.0 10.0 0.00 0.00 0.00 73 1012.4
20170425183644 54 281 3.0 10.0 0.00 0.00 0.00 74 1012.2
20170425183144 54 175 2.0 15.0 0.00 0.00 0.00 75 1012.2
20170425182642 54 207 10.0 15.0 0.00 0.00 0.00 75 1012.2
20170425182143 54 218 8.0 11.0 0.00 0.00 0.00 74 1012.2
20170425181643 54 286 11.0 11.0 0.00 0.00 0.00 73 1012.4
20170425181143 54 253 4.0 10.0 0.00 0.00 0.00 73 1012.2
20170425180643 53 302 5.0 10.0 0.00 0.00 0.00 75 1012.1
20170425180142 54 295 8.0 11.0 0.00 0.00 0.00 75 1012.1
20170425175643 54 335 6.0 12.0 0.00 0.00 0.00 74 1011.8
20170425175141 54 278 3.0 14.0 0.00 0.00 0.00 74 1011.8
20170425174641 53 302 3.0 14.0 0.00 0.00 0.00 75 1011.7
20170425174142 53 214 8.0 10.0 0.00 0.00 0.00 76 1011.7
20170425173641 53 218 1.0 14.0 0.00 0.00 0.00 77 1011.7
20170425173142 53 268 8.0 15.0 0.00 0.00 0.00 76 1011.6
20170425172642 54 295 10.0 16.0 0.00 0.00 0.00 76 1011.6
20170425172142 54 259 10.0 16.0 0.00 0.00 0.00 76 1011.5
20170425171640 53 290 8.0 14.0 0.00 0.00 0.00 77 1011.5
20170425171141 53 290 5.0 12.0 0.00 0.00 0.00 76 1011.6
20170425170641 53 296 5.0 11.0 0.00 0.00 0.00 76 1011.7
20170425170139 53 283 5.0 9.0 0.00 0.00 0.00 78 1011.8
20170425165640 52 298 2.0 9.0 0.00 0.00 0.00 77 1011.8
20170425165140 53 289 8.0 8.0 0.00 0.00 0.00 78 1011.9
20170425164640 53 236 3.0 9.0 0.00 0.00 0.00 78 1011.9
20170425164139 52 285 4.0 9.0 0.00 0.00 0.00 78 1011.8
20170425163639 51 313 3.0 9.0 0.00 0.00 0.00 81 1011.6
20170425163141 51 266 5.0 8.0 0.00 0.00 0.00 84 1011.5
20170425162640 51 240 5.0 8.0 0.00 0.00 0.00 84 1011.3
20170425162140 51 226 5.0 7.0 0.00 0.00 0.00 83 1011.4
20170425161640 50 274 4.0 7.0 0.00 0.00 0.00 85 1011.3
20170425161138 50 224 4.0 7.0 0.00 0.00 0.00 85 1011.3
20170425160640 50 269 6.0 7.0 0.00 0.00 0.00 86 1011.3
20170425160138 50 243 4.0 8.0 0.00 0.00 0.00 86 1011.3
20170425155638 50 262 3.0 8.0 0.00 0.00 0.00 87 1012.0
20170425155137 49 291 4.0 6.0 0.00 0.00 0.00 88 1011.6
20170425154638 49 224 2.0 8.0 0.00 0.00 0.00 86 1011.5
20170425154138 49 210 3.0 8.0 0.00 0.00 0.00 86 1011.3
20170425153637 49 233 6.0 6.0 0.00 0.00 0.00 88 1011.2
20170425153137 49 268 4.0 9.0 0.00 0.00 0.00 89 1011.2
20170425152640 49 243 4.0 9.0 0.00 0.00 0.00 89 1011.3
20170425152137 49 255 4.0 7.0 0.00 0.00 0.00 89 1011.3
20170425151638 49 226 5.0 7.0 0.00 0.00 0.00 89 1011.2
20170425150616 49 214 2.0 6.0 0.00 0.00 0.00 90 1011.3
20170425150148 48 231 2.0 6.0 0.00 0.00 0.00 90 1011.2
20170425145645 48 274 5.0 6.0 0.00 0.00 0.00 90 1011.0
20170425145115 48 260 2.0 6.0 0.00 0.00 0.00 90 1011.0
20170425144614 48 272 3.0 3.0 0.00 0.00 0.00 90 1010.9
20170425144114 48 229 2.0 3.0 0.00 0.00 0.00 90 1010.8
20170425143616 48 232 1.0 5.0 0.00 0.00 0.00 90 1010.6
20170425143115 48 235 2.0 5.0 0.00 0.00 0.00 91 1010.7
20170425142617 48 236 4.0 4.0 0.00 0.00 0.00 91 1010.7
20170425142115 48 184 2.0 4.0 0.00 0.00 0.00 91 1010.6
20170425141614 48 252 2.0 4.0 0.00 0.00 0.00 91 1010.5
20170425141114 48 228 1.0 4.0 0.00 0.00 0.00 91 1010.4
20170425140613 48 247 1.0 4.0 0.00 0.00 0.00 91 1010.2
20170425140145 48 234 3.0 4.0 0.00 0.00 0.00 91 1010.1
20170425135645 48 199 0.0 4.0 0.00 0.00 0.00 91 1010.4
20170425135142 47 237 3.0 4.0 0.00 0.00 0.00 91 1010.3